Home   Weather   Kufstein   Past weeks

Flag for Austria Past Weather in Kufstein, Tyrol, Austria — Yesterday and Last 2 Weeks

Now
37 °F

Chilly.


Feels Like: 37 °F
Forecast: 30 / 47 °F
Wind: 1 mph from South

Location: Kufstein

Current Time: Dec 10, 2016 at 5:56:47 pm

Latest Report: Dec 10, 2016 at 5:00 pm


Visibility: N/A

Pressure: 30.37 "Hg

Humidity: 67%

Dew Point: 28 °F

Location of KufsteinLocation

Past Weather in Kufstein — Graph

°F

Kufstein Temperature Yesterday

Maximum temperature yesterday: 39 °F (at 2:00 pm)
Minimum temperature yesterday: 24 °F (at 7:00 am)
Average temperature yesterday: 30 °F

High & Low Weather Summary for the Past Weeks

 TemperatureHumidityPressure
High44 °F (Nov 26, 3:00 pm)95% (Nov 27, 7:00 am)30.72 "Hg (Nov 27, 7:00 am)
Low21 °F (Nov 29, 7:00 am)40% (Dec 7, 2:00 pm)30.03 "Hg (Nov 27, 3:00 pm)
Average33 °F78%30.40 "Hg
* Reported Nov 25 4:00 pm — Dec 10 4:00 pm, Kufstein, Weather by CustomWeather, © 2016

Note: Actual official high and low records may vary slightly from our data, if they occured in-between our weather recording intervals... More about our weather records

Advertising

Kufstein Weather History for the Previous 24 Hours

Scroll right to see more
 ConditionsComfort  
Time TempWeatherWind HumidityBarometerVisibility
4:00 pm
Sat, Dec 10
40 °FQuite cool.No wind62%30.35 "HgN/A
3:00 pm44 °FQuite cool.1 mph53%30.34 "HgN/A
2:00 pm43 °FQuite cool.1 mph54%30.35 "HgN/A
1:00 pm40 °FQuite cool.No wind60%30.39 "HgN/A
12:00 pm37 °FChilly.1 mph63%30.42 "HgN/A
11:00 am35 °FChilly.2 mph68%30.46 "HgN/A
10:00 am30 °FChilly.No wind75%30.50 "HgN/A
9:00 am28 °FChilly.1 mph78%30.51 "HgN/A
8:00 am28 °FChilly.2 mph78%30.51 "HgN/A
7:00 am28 °FPassing clouds.1 mph79%30.51 "Hg6 mi
6:00 am28 °FChilly.1 mph78%30.51 "HgN/A
5:00 am28 °FChilly.2 mph78%30.52 "HgN/A
4:00 am29 °FChilly.3 mph75%30.53 "HgN/A
3:00 am28 °FChilly.No wind79%30.55 "HgN/A
2:00 am28 °FChilly.No wind79%30.56 "HgN/A
1:00 am29 °FChilly.1 mph78%30.56 "HgN/A
12:00 am29 °FChilly.No wind79%30.58 "HgN/A
11:00 pm
Fri, Dec 9
30 °FChilly.1 mph76%30.59 "HgN/A
10:00 pm30 °FChilly.1 mph77%30.60 "HgN/A
9:00 pm30 °FChilly.No wind77%30.60 "HgN/A
8:00 pm31 °FChilly.No wind77%30.61 "HgN/A
7:00 pm30 °FChilly.No wind76%30.60 "HgN/A
6:00 pm32 °FChilly.No wind73%30.59 "HgN/A
5:00 pm33 °FChilly.No wind70%30.57 "HgN/A
Weather by CustomWeather, © 2016

See weather overviewHow to use our weather pages